User: anonymous   Login
Location: Unspecified
(0.0000°N, 0.0000°E)
Time: 23:50:40
(UTC+00:00)
Language:

A-11 Canister half - Orbit

View from above orbital plane
View from above orbital plane
View from above satellite
View from above satellite

Ground track
Ground track

The orbit data is extracted from the following two-line orbital elements,

1 00053U 60009E   17289.58231143 -.00000086  00000-0  00000+0 0  9991
2 00053  47.2781  25.2087 0097642  81.5702 279.6141 12.17202544549820
Epoch (UTC): 16 October 2017 13:58:31
Eccentricity: 0.0097642
inclination: 47.2781°
perigee height: 1527 km
apogee height: 1682 km
right ascension of ascending node: 25.2087°
argument of perigee: 81.5702°
revolutions per day: 12.17202544
mean anomaly at epoch: 279.6141°
orbit number at epoch: 54982

The dashed part of the orbit path shows where the satellite is in the earth's shadow,  

DLR